Вернуться в каталог

KUIPER-00601

АктивенСвязьLEO
NORAD 69285·PAYLOAD·🇺🇸 United States

Запущен May 29, 2026 с Vandenberg Space Force Base

Loading…

Ближайшие Пролёты (ближайшие 24 часа)

TLE

СвежийSource: CelesTrak SupGP

Эпоха: Sep 14, 2026, 21:18 UTC

1 69285C 26118U   26257.88782407  .00004908  00000+0  64262-3 0  2574
2 69285  51.9029   4.0108 0000545  98.2248 182.5939 14.79917881    11

Отслеживайте KUIPER-00601 в реальном времени с AllMySat

Download on the App Store